Regional Weather Roundup
Issued by NWS

Home | Current Version | Previous Version | Text Only | Print | Product List | Glossary Off
Versions: 1 2 3 4 5 6 7 8 9 10 11 12 13 14 15 16 17 18 19 20 21 22 23 24 25 26 27 28 29 30 31 32 33 34 35 36 37 38 39 40 41 42 43 44 45 46 47 48 49 50

000
ASUS43 KTOP 241008
RWRKS

WEATHER ROUNDUP FOR KANSAS
NATIONAL WEATHER SERVICE GOODLAND KS
500 AM CDT TUE APR 24 2018

NOTE:  "FAIR" INDICATES FEW OR NO CLOUDS BELOW 12,000 FEET WITH NO
SIGNIFICANT WEATHER AND/OR OBSTRUCTIONS TO VISIBILITY.

KSZ001>006-013>018-027>032-041>047-241100-
NORTHWEST KANSAS

CITY           SKY/WX    TMP DP  RH WIND       PRES   REMARKS
GOODLAND       RAIN      41  40  96 N20G32    30.21S FOG
HAYS           CLEAR     41  39  93 SW7       30.12S
HILL CITY      CLOUDY    46  42  86 NW3       30.13S
RUSSELL        CLEAR     48  40  73 SE3       30.10S
$$

KSZ061>065-074>080-084>089-241100-
SOUTHWEST KANSAS

CITY           SKY/WX    TMP DP  RH WIND       PRES   REMARKS
DODGE CITY     PTCLDY    47  41  80 SE7       30.12F
ELKHART        FAIR      50  47  88 SE14      30.05S
GARDEN CITY    CLOUDY    45  41  86 NE5       30.13R
GREAT BEND     CLEAR     45  42  89 N5        30.12S
LIBERAL        CLOUDY    50  44  80 E12       30.11R
PRATT          CLEAR     45  41  86 NW5       30.12S
$$

KSZ066>073-081>083-090>101-241100-
SOUTHEAST KANSAS

CITY           SKY/WX    TMP DP  RH WIND       PRES   REMARKS
CHANUTE        CLEAR     46  40  79 N5        30.08R
COFFEYVILLE    CLEAR     47  45  93 N3        30.06S
HUTCHINSON     CLEAR     44  41  89 NW6       30.10R
MEDICINE LODGE   N/A     46  43  89 NW5       30.10R
NEWTON         CLEAR     50  37  61 N9        30.09S
PARSONS        CLEAR     45  40  82 N5        30.08R
WICHITA INTL   PTCLDY    47  43  86 N7        30.08R
WICHITA JABRA  CLEAR     49  39  68 N8        30.08S
WICHITA MCCONL CLEAR     51  40  68 N8        30.08R
WINFIELD       CLEAR     50  47  89 CALM      30.08S
$$

KSZ007>012-019>026-033>040-048>060-102>105-241100-
NORTHEAST KANSAS

CITY           SKY/WX    TMP DP  RH WIND       PRES   REMARKS
CONCORDIA      CLOUDY    49  34  56 CALM      30.10F
EMPORIA        PTCLDY    47  39  74 NW3       30.08S
LAWRENCE       CLEAR     39  35  86 NW6       30.09S
MANHATTAN      CLEAR     42  37  82 CALM      30.10R
MARYSVILLE     CLEAR     37  32  81 CALM      30.11S
OLATHE IND     CLEAR     47  36  65 NW5       30.09R
OLATHE EXE     CLEAR     51  33  50 NW7       30.08R
SALINA         CLEAR     48  41  76 NW3       30.11R
TOPEKA BILLARD PTCLDY    43  39  86 CALM      30.09S
TOPEKA FORBES  MOCLDY    41  35  79 N3        30.09S
$$



USA.gov is the U.S. government's official web portal to all federal, state and local government web resources and services.